STARLINK-6366, 57380

Orbit data source: Space-Track

STARLINK-6366, 57380 is a payload satellite owned by SpaceX/Seattle (US) in LEO that was launched on Sun, 16 Jul 2023 UTC via an FALCON 9 launch vehicle from the Air Force Eastern Test Range (AFETR). Payload-class satellites include a variety of spacecraft equipped with specific instruments for various scientific and technological missions. These include communications satellites like Starlink; space stations such as the ISS; scientific satellites like the Hubble; Earth observation satellites from companies like Planet Labs, Umbra, and HawkEye 360; GPS; miniature CubeSats for education and research; and military/defense satellites.

Loading next visibility...
Identifier
57380, 2023-099BE
Orbit
LEO
Country
Flag of USUS
Related business
Manufacturer
SpaceX/Seattle
Mission
Operational Commercial Communications
Bus & Motor
STARLINK, Unknown motor
Mass
305 kg wet, ~290 kg dry
Launch date (UTC)
2023-07-16 (3 years ago)
Launch vehicle
FALCON 9
Launch site
Air Force Eastern Test Range (AFETR)
Object type
Payload
Rocket body
Debris
Shape & HBR
Box + 1 Pan, 10.1 m
Radar Cross Section
11.087 m², Large (>1 m²)

Expand to show TLE details & history
Last TLE update: 2 days ago

TLE from 2 days ago
0 STARLINK-6366
1 57380U 23099BE  26171.19749817  .00000116  00000-0  13736-4 0  9991
2 57380  43.0036 353.5890 0001169 252.5618 107.5106 15.27577828162944
Epoch: 2026-06-20T04:44Z
TLE epoch observation values (Epoch: 2026-06-20T04:44:23.841Z)
Latitude
-0.00003°
Longitude
14.07405°
Altitude
483.073 km
Speed
7.626 km/s
True Right ascension
23h 34m 21s
True Declination
0° 00' 00"
Sunlit
Object was in daylight at epoch
Visualization orbit readout
Latitude
Unknown
Longitude
Unknown
Altitude
Unknown
Speed
Unknown
Apparent Right ascension
Unknown
Apparent Declination
Unknown
Sunlit
N/A
Visualization observer readout
Local Sidereal Time
21:33:40
Azimuth
Unknown
Elevation
Unknown
Doppler factor
Unknown
Orbital elements
Apogee altitude
485.802 km
Perigee altitude
484.198 km
Semi-major axis
6,863.137 km
Eccentricity
0.00012
Inclination
43.0036°
RAAN
353.589°
Arg. of periapsis
252.5618°
True anomaly
107.52337°
Mean anomaly
107.5106°
Eccentric anomaly
107.51699°
Mean motion
3.81733 °/min
Orbital period
94.31 mins
BSTAR
0.000013736
Loading maneuver chart data...
Computing Atmospheric mass density...
Loading historical data...
Loading historical data...
Loading historical data...
Loading historical data...
Loading historical data...
Loading historical data...
Loading historical data...

Documentation

Showing up to 5 results
|